Showing default

ICEYE-X54, 64570

Orbit data source: Space-Track

ICEYE-X54, 64570 is a payload satellite owned by ICEYE (FI) in SSO that was launched on Mon, 23 Jun 2025 UTC via an FALCON 9 launch vehicle from the Air Force Western Test Range (AFWTR). Payload-class satellites include a variety of spacecraft equipped with specific instruments for various scientific and technological missions. These include communications satellites like Starlink; space stations such as the ISS; scientific satellites like the Hubble; Earth observation satellites from companies like Planet Labs, Umbra, and HawkEye 360; GPS; miniature CubeSats for education and research; and military/defense satellites.

Loading next visibility...
Identifier
64570, 2025-135AU
Orbit
SSO
Country
Flag of FIFI / FIN
Related business
Manufacturer
ICEYE
Mission
Operational Commercial Radar Imaging
Bus & Motor
ICEYE, Unknown motor
Mass
80 kg wet, 80 kg dry
Launch date (UTC)
2025-06-23 (1 year ago)
Launch vehicle
FALCON 9
Launch site
Air Force Western Test Range (AFWTR)
Object type
Payload
Rocket body
Debris
Shape & HBR
Box + 1 Pan, 2.4 m
Radar Cross Section
0.776 m², Medium (>0.1 m² and < 1m²)

Expand to show TLE details & history
Last TLE update: 7 hours ago

TLE from 7 hours ago
0 ICEYE-X54
1 64570U 25135AU  26171.57279817  .00001929  00000-0  18380-3 0  9995
2 64570  97.7723 285.9626 0001115 327.2383  32.8768 14.94550398 54408
Epoch: 2026-06-20T13:44Z
TLE epoch observation values (Epoch: 2026-06-20T13:44:49.761Z)
Latitude
-0.00004°
Longitude
170.96978°
Altitude
586.162 km
Speed
7.568 km/s
True Right ascension
19h 03m 51s
True Declination
0° 00' 00"
Sunlit
Object was in full shadow at epoch
Visualization orbit readout
Latitude
Unknown
Longitude
Unknown
Altitude
Unknown
Speed
Unknown
Apparent Right ascension
Unknown
Apparent Declination
Unknown
Sunlit
N/A
Visualization observer readout
Local Sidereal Time
07:21:50
Azimuth
Unknown
Elevation
Unknown
Doppler factor
Unknown
Orbital elements
Apogee altitude
581.56 km
Perigee altitude
580.008 km
Semi-major axis
6,958.921 km
Eccentricity
0.00011
Inclination
97.7723°
RAAN
285.9626°
Arg. of periapsis
327.2383°
True anomaly
32.88374°
Mean anomaly
32.8768°
Eccentric anomaly
32.88027°
Mean motion
3.73878 °/min
Orbital period
96.29 mins
BSTAR
0.0001838
Loading maneuver chart data...
Computing Atmospheric mass density...
Loading historical data...
Loading historical data...
Loading historical data...
Loading historical data...
Loading historical data...
Loading historical data...
Loading historical data...

Documentation

Showing up to 5 results
|